Weather History for KLEE - January, 2013

Change the Weather History Date:

Monday, January 7, 2013

  Actual Average Record
Temperature  
Mean Temperature 61 °F -  
Max Temperature 69 °F 70 °F 82 °F (2007)
Min Temperature 53 °F 48 °F 32 °F (1980)
Degree Days  
Heating Degree Days 4    
Growing Degree Days 11 (Base 50)    
Moisture  
Dew Point 54 °F    
Average Humidity 80    
Maximum Humidity 94    
Minimum Humidity 61    
Precipitation  
Precipitation 0.10 in - - ()
Sea Level Pressure  
Sea Level Pressure 30.21 in    
Wind  
Wind Speed 8 mph (NNE)    
Max Wind Speed 15 mph    
Max Gust Speed -    
Visibility 9 miles    
Events Rain    
Averages and records for this station are not official NWS values.
T = Trace of Precipitation, MM = Missing Value Source: NWS Daily Summary

Daily Weather History Graph

Daily Weather History Graph

Search for Another Location

Airport or City:

Trip Planner

Search our weather history database for the weather conditions in past years. The results will help you decide how hot, cold, wet, or windy it might be!

Date:

Astronomy

Jan. 07, 2013 Rise Set
Actual Time 7:21 AM EST 5:45 PM EST
Civil Twilight 6:55 AM EST 6:11 PM EST
Nautical Twilight 6:26 AM EST 6:40 PM EST
Astronomical Twilight 5:57 AM EST 7:09 PM EST
Moon 2:49 AM EST (1/7) 1:51 PM EST (1/7)
Length of Visible Light 11h 15m
Length of Day
10h 24m
Waning Crescent, 23% of the Moon is Illuminated
Jan 7
Waning Crescent
Jan 11
New
Jan 18
First Quarter
Jan 26
Full
Feb 3
Last Quarter

Hourly Weather History & Observations

Time (EST) Temp. Dew Point Humidity Pressure Visibility Wind Dir Wind Speed Gust Speed Precip Events Conditions
12:53 AM 60.1 °F 57.9 °F 93% 30.17 in 8.0 mi NE 5.8 mph - 0.01 in   Mostly Cloudy
1:10 AM 60.8 °F 57.2 °F 88% 30.17 in 7.0 mi North 6.9 mph - N/A   Mostly Cloudy
1:26 AM 60.8 °F 57.2 °F 88% 30.17 in 6.0 mi NNE 8.1 mph - N/A   Mostly Cloudy
1:37 AM 60.8 °F 57.2 °F 88% 30.17 in 6.0 mi North 5.8 mph - N/A   Mostly Cloudy
1:50 AM 60.8 °F 57.2 °F 88% 30.17 in 7.0 mi North 4.6 mph - 0.00 in   Overcast
1:53 AM 60.1 °F 57.9 °F 93% 30.17 in 6.0 mi NNE 3.5 mph - 0.00 in   Overcast
2:53 AM 59.0 °F 57.0 °F 93% 30.17 in 8.0 mi NNE 10.4 mph - 0.00 in Rain Light Rain
3:43 AM 59.0 °F 57.2 °F 94% 30.17 in 8.0 mi NNE 8.1 mph - 0.00 in   Overcast
3:53 AM 59.0 °F 55.9 °F 90% 30.17 in 9.0 mi NNE 11.5 mph - 0.00 in   Overcast
4:13 AM 59.0 °F 55.4 °F 88% 30.17 in 10.0 mi NNE 9.2 mph - N/A   Overcast
4:35 AM 57.2 °F 55.4 °F 94% 30.18 in 10.0 mi NNE 9.2 mph - N/A   Mostly Cloudy
4:53 AM 57.0 °F 54.0 °F 89% 30.18 in 10.0 mi North 8.1 mph - N/A   Mostly Cloudy
5:02 AM 57.2 °F 53.6 °F 88% 30.18 in 10.0 mi NNE 5.8 mph - N/A   Mostly Cloudy
5:53 AM 55.0 °F 50.0 °F 83% 30.19 in 10.0 mi NNE 9.2 mph - N/A   Mostly Cloudy
6:00 AM 55.4 °F 50.0 °F 82% 30.20 in 10.0 mi NNE 6.9 mph - N/A   Scattered Clouds
6:53 AM 53.1 °F 48.0 °F 83% 30.22 in 10.0 mi NE 6.9 mph - N/A   Partly Cloudy
7:36 AM 53.6 °F 48.2 °F 82% 30.24 in 10.0 mi NNE 5.8 mph - N/A   Mostly Cloudy
7:53 AM 53.1 °F 48.0 °F 83% 30.25 in 10.0 mi NNE 6.9 mph - N/A   Mostly Cloudy
8:04 AM 53.6 °F 48.2 °F 82% 30.26 in 10.0 mi NNE 6.9 mph - N/A   Scattered Clouds
8:53 AM 55.0 °F 48.0 °F 77% 30.26 in 10.0 mi NE 5.8 mph - N/A   Partly Cloudy
9:53 AM 61.0 °F 50.0 °F 67% 30.26 in 10.0 mi ENE 11.5 mph - N/A   Clear
10:53 AM 62.1 °F 50.0 °F 65% 30.25 in 10.0 mi NNE 11.5 mph - N/A   Partly Cloudy
11:53 AM 64.0 °F 51.1 °F 63% 30.23 in 10.0 mi NNE 11.5 mph - N/A   Clear
12:53 PM 64.0 °F 52.0 °F 65% 30.21 in 10.0 mi NNE 11.5 mph - N/A   Partly Cloudy
1:53 PM 66.0 °F 53.1 °F 63% 30.19 in 10.0 mi ENE 10.4 mph - N/A   Mostly Cloudy
2:53 PM 68.0 °F 54.0 °F 61% 30.19 in 10.0 mi ENE 15.0 mph - N/A   Overcast
3:53 PM 69.1 °F 55.0 °F 61% 30.19 in 10.0 mi ENE 9.2 mph - N/A   Scattered Clouds
4:39 PM 66.2 °F 55.4 °F 68% 30.20 in 10.0 mi ENE 11.5 mph - N/A   Overcast
4:53 PM 66.9 °F 55.0 °F 66% 30.21 in 10.0 mi NE 8.1 mph - N/A   Overcast
5:51 PM 64.4 °F 55.4 °F 73% 30.22 in 10.0 mi NE 8.1 mph - 0.00 in Rain Light Rain
5:53 PM 64.9 °F 55.0 °F 70% 30.22 in 10.0 mi NE 6.9 mph - 0.00 in Rain Light Rain
6:06 PM 64.4 °F 55.4 °F 73% 30.22 in 10.0 mi NE 6.9 mph - 0.00 in Rain Light Rain
6:53 PM 64.0 °F 57.0 °F 78% 30.22 in 9.0 mi NNE 5.8 mph - 0.00 in Rain Light Rain
7:18 PM 62.6 °F 55.4 °F 77% 30.23 in 10.0 mi NE 8.1 mph - 0.01 in   Overcast
7:53 PM 63.0 °F 55.9 °F 78% 30.23 in 10.0 mi NNE 4.6 mph - 0.01 in Rain Light Rain
8:53 PM 61.0 °F 57.0 °F 87% 30.23 in 9.0 mi NE 4.6 mph - 0.01 in Rain Light Rain
9:53 PM 61.0 °F 57.9 °F 90% 30.23 in 9.0 mi NNE 5.8 mph - 0.01 in Rain Light Rain
10:53 PM 60.1 °F 57.0 °F 90% 30.22 in 10.0 mi North 8.1 mph - 0.06 in   Overcast
11:53 PM 59.0 °F 57.0 °F 93% 30.21 in 10.0 mi NNE 5.8 mph - N/A   Mostly Cloudy